• In Czech Republic
  • List of Countries
  • For 7 days
  • Water Temperature
  • Satellite Maps
  • Weather Map
  • Weather Widgets
  • user-avatar
    Login

    Hourly Weather Maloe Kobyakovo

    Today, 24 September, Monday

    Time Temperature Precipitation Wind Pressure Humidity
    00:00 +7°C° 0 mm 3 mps 738 mmHg 88%
    01:00 +7°C° 0 mm 3 mps 738 mmHg 90%
    02:00 +7°C° 0 mm 3 mps 738 mmHg 92%
    03:00 +6°C° 0 mm 2 mps 738 mmHg 93%
    04:00 +6°C° 0 mm 2 mps 738 mmHg 94%
    05:00 +6°C° 0 mm 2 mps 738 mmHg 95%
    06:00 +7°C° 0 mm 3 mps 738 mmHg 92%
    07:00 +8°C° 0 mm 3 mps 738 mmHg 88%
    08:00 +9°C° 0 mm 3 mps 737 mmHg 84%
    09:00 +9°C° 0.6 mm 3 mps 737 mmHg 85%
    10:00 +8°C° 0.6 mm 4 mps 736 mmHg 86%
    11:00 +8°C° 0.6 mm 4 mps 736 mmHg 87%
    12:00 +8°C° 0.9 mm 4 mps 735 mmHg 87%
    13:00 +8°C° 0.9 mm 4 mps 734 mmHg 87%
    14:00 +8°C° 0.9 mm 5 mps 734 mmHg 87%
    15:00 +7°C° 2.6 mm 5 mps 732 mmHg 89%
    16:00 +7°C° 2.6 mm 5 mps 731 mmHg 91%
    17:00 +6°C° 2.6 mm 5 mps 730 mmHg 93%
    18:00 +7°C° 2.2 mm 5 mps 729 mmHg 94%
    19:00 +7°C° 2.2 mm 5 mps 728 mmHg 94%
    20:00 +7°C° 2.2 mm 5 mps 727 mmHg 94%
    21:00 +7°C° 1.4 mm 5 mps 727 mmHg 94%
    22:00 +7°C° 1.4 mm 5 mps 727 mmHg 94%
    23:00 +7°C° 1.4 mm 5 mps 726 mmHg 93%

    Tomorrow, 25 September, Tuesday

    Time Temperature Precipitation Wind Pressure Humidity
    00:00 +7°C° 1 mm 6 mps 727 mmHg 93%
    01:00 +5°C° 1 mm 6 mps 727 mmHg 92%
    02:00 +5°C° 1 mm 6 mps 728 mmHg 92%
    03:00 +5°C° 0.6 mm 7 mps 728 mmHg 91%
    04:00 +5°C° 0.6 mm 7 mps 729 mmHg 90%
    05:00 +5°C° 0.6 mm 7 mps 730 mmHg 89%
    06:00 +5°C° 0.5 mm 7 mps 730 mmHg 88%
    07:00 +5°C° 0.5 mm 7 mps 731 mmHg 87%
    08:00 +5°C° 0.5 mm 7 mps 732 mmHg 86%
    09:00 +5°C° 0.3 mm 7 mps 733 mmHg 84%
    10:00 +5°C° 0.3 mm 7 mps 734 mmHg 82%
    11:00 +5°C° 0.3 mm 7 mps 735 mmHg 81%
    12:00 +6°C° 0.2 mm 7 mps 736 mmHg 79%
    13:00 +6°C° 0.2 mm 7 mps 737 mmHg 77%
    14:00 +6°C° 0.2 mm 7 mps 737 mmHg 75%
    15:00 +7°C° 0.1 mm 6 mps 738 mmHg 75%
    16:00 +5°C° 0.1 mm 6 mps 739 mmHg 74%
    17:00 +5°C° 0.1 mm 6 mps 739 mmHg 74%
    18:00 +4°C° 0 mm 6 mps 740 mmHg 75%
    19:00 +5°C° 0 mm 5 mps 741 mmHg 77%
    20:00 +3°C° 0 mm 5 mps 742 mmHg 78%
    21:00 +3°C° 0 mm 5 mps 743 mmHg 80%
    22:00 +3°C° 0 mm 5 mps 743 mmHg 81%
    23:00 +3°C° 0 mm 4 mps 744 mmHg 83%

    Day after tomorrow, 26 September, Wednesday

    Time Temperature Precipitation Wind Pressure Humidity
    00:00 +3°C° 0 mm 4 mps 745 mmHg 82%
    01:00 +1°C° 0 mm 4 mps 745 mmHg 81%
    02:00 +1°C° 0 mm 4 mps 746 mmHg 80%
    03:00 0°C° 0 mm 4 mps 747 mmHg 79%
    04:00 0°C° 0 mm 4 mps 747 mmHg 79%
    05:00 -1°C° 0 mm 4 mps 748 mmHg 78%
    06:00 0°C° 0 mm 4 mps 748 mmHg 75%
    07:00 +1°C° 0 mm 4 mps 749 mmHg 72%
    08:00 +3°C° 0 mm 4 mps 749 mmHg 70%
    09:00 +4°C° 0 mm 4 mps 749 mmHg 65%
    10:00 +6°C° 0 mm 4 mps 749 mmHg 60%
    11:00 +7°C° 0 mm 4 mps 749 mmHg 56%
    12:00 +8°C° 0 mm 4 mps 749 mmHg 57%
    13:00 +8°C° 0 mm 4 mps 748 mmHg 58%
    14:00 +10°C° 0 mm 4 mps 748 mmHg 60%
    15:00 +8°C° 0 mm 4 mps 747 mmHg 64%
    16:00 +7°C° 0 mm 4 mps 747 mmHg 68%
    17:00 +7°C° 0 mm 4 mps 746 mmHg 71%
    18:00 +6°C° 0.1 mm 5 mps 745 mmHg 72%
    19:00 +6°C° 0.1 mm 5 mps 745 mmHg 72%
    20:00 +5°C° 0.1 mm 6 mps 744 mmHg 73%
    21:00 +4°C° 0.4 mm 7 mps 743 mmHg 76%
    22:00 +4°C° 0.4 mm 7 mps 742 mmHg 78%
    23:00 +4°C° 0.4 mm 8 mps 741 mmHg 81%

    27 September, Thursday

    Time Temperature Precipitation Wind Pressure Humidity
    00:00 +4°C° 1.3 mm 8 mps 739 mmHg 83%
    01:00 +4°C° 1.3 mm 8 mps 738 mmHg 85%
    02:00 +2°C° 1.3 mm 8 mps 737 mmHg 88%
    03:00 +4°C° 0.8 mm 8 mps 737 mmHg 88%
    04:00 +4°C° 0.8 mm 7 mps 736 mmHg 89%
    05:00 +4°C° 0.8 mm 6 mps 736 mmHg 90%
    06:00 +5°C° 0.2 mm 6 mps 736 mmHg 88%
    07:00 +7°C° 0.2 mm 5 mps 737 mmHg 86%
    08:00 +7°C° 0.2 mm 5 mps 737 mmHg 84%
    09:00 +8°C° 0 mm 5 mps 737 mmHg 77%
    10:00 +9°C° 0 mm 6 mps 737 mmHg 70%
    11:00 +10°C° 0 mm 6 mps 737 mmHg 63%
    12:00 +10°C° 0.1 mm 6 mps 737 mmHg 61%
    13:00 +10°C° 0.1 mm 6 mps 737 mmHg 60%
    14:00 +11°C° 0.1 mm 6 mps 737 mmHg 59%
    15:00 +10°C° 0.1 mm 5 mps 737 mmHg 64%
    16:00 +10°C° 0.1 mm 4 mps 737 mmHg 69%
    17:00 +10°C° 0.1 mm 3 mps 737 mmHg 74%
    18:00 +9°C° 0 mm 3 mps 737 mmHg 79%
    19:00 +8°C° 0 mm 3 mps 737 mmHg 83%
    20:00 +7°C° 0 mm 3 mps 737 mmHg 88%
    21:00 +8°C° 0.2 mm 3 mps 737 mmHg 90%
    22:00 +8°C° 0.2 mm 3 mps 736 mmHg 91%
    23:00 +8°C° 0.2 mm 3 mps 736 mmHg 93%

    28 September, Friday

    Time Temperature Precipitation Wind Pressure Humidity
    00:00 +9°C° 1.4 mm 3 mps 735 mmHg 94%
    01:00 +8°C° 1.4 mm 4 mps 734 mmHg 95%
    02:00 +10°C° 1.4 mm 4 mps 733 mmHg 96%
    03:00 +9°C° 1.4 mm 5 mps 732 mmHg 94%
    04:00 +10°C° 1.4 mm 6 mps 731 mmHg 92%
    05:00 +11°C° 1.4 mm 7 mps 729 mmHg 90%
    06:00 +10°C° 1 mm 7 mps 730 mmHg 88%
    07:00 +10°C° 1 mm 7 mps 730 mmHg 87%
    08:00 +10°C° 1 mm 8 mps 730 mmHg 86%
    09:00 +9°C° 0.1 mm 7 mps 731 mmHg 83%
    10:00 +9°C° 0.1 mm 7 mps 732 mmHg 80%
    11:00 +8°C° 0.1 mm 7 mps 734 mmHg 77%
    12:00 +8°C° 0.1 mm 6 mps 735 mmHg 73%
    13:00 +9°C° 0.1 mm 6 mps 736 mmHg 69%
    14:00 +10°C° 0.1 mm 6 mps 737 mmHg 65%
    15:00 +9°C° 0.1 mm 5 mps 737 mmHg 69%
    16:00 +8°C° 0.1 mm 5 mps 738 mmHg 72%
    17:00 +7°C° 0.1 mm 4 mps 738 mmHg 76%
    18:00 +6°C° 0 mm 4 mps 739 mmHg 79%
    19:00 +5°C° 0 mm 4 mps 740 mmHg 81%
    20:00 +5°C° 0 mm 4 mps 741 mmHg 84%
    21:00 +4°C° 0 mm 3 mps 741 mmHg 85%
    22:00 +4°C° 0 mm 3 mps 742 mmHg 86%
    23:00 +3°C° 0 mm 3 mps 742 mmHg 88%

    29 September, Saturday

    Time Temperature Precipitation Wind Pressure Humidity
    00:00 +3°C° 0 mm 3 mps 743 mmHg 89%
    01:00 +2°C° 0 mm 3 mps 743 mmHg 90%
    02:00 +2°C° 0 mm 3 mps 744 mmHg 91%
    03:00 +1°C° 0 mm 3 mps 744 mmHg 91%
    04:00 +1°C° 0 mm 3 mps 745 mmHg 91%
    05:00 +1°C° 0 mm 3 mps 745 mmHg 92%
    06:00 +2°C° 0 mm 3 mps 745 mmHg 88%
    07:00 +2°C° 0 mm 3 mps 746 mmHg 84%
    08:00 +3°C° 0 mm 3 mps 747 mmHg 80%
    09:00 +4°C° 0 mm 3 mps 747 mmHg 73%
    10:00 +7°C° 0 mm 3 mps 747 mmHg 66%
    11:00 +8°C° 0 mm 3 mps 748 mmHg 59%
    12:00 +8°C° 0 mm 3 mps 748 mmHg 56%
    13:00 +8°C° 0 mm 3 mps 748 mmHg 53%
    14:00 +9°C° 0 mm 3 mps 748 mmHg 51%
    15:00 +8°C° 0 mm 2 mps 748 mmHg 56%
    16:00 +7°C° 0 mm 2 mps 748 mmHg 62%
    17:00 +6°C° 0 mm 2 mps 748 mmHg 68%
    18:00 +5°C° 0 mm 2 mps 749 mmHg 69%
    19:00 +4°C° 0 mm 3 mps 749 mmHg 70%
    20:00 +3°C° 0 mm 3 mps 750 mmHg 72%
    21:00 +3°C° 0 mm 3 mps 750 mmHg 74%
    22:00 +2°C° 0 mm 3 mps 750 mmHg 77%
    23:00 +2°C° 0 mm 3 mps 751 mmHg 79%
    Show more